Weather in Yuma

United States     32°43′31″N   114°37′24″W
temp.,
°C
wind,
m/s
gust,
m/s
humid.,
%
clouds,
%
prec.,
mm/h
press.,
hPa
HPBL,
m
24 may, tue
tue2423:00+24s492949 0.0 1006124
02:00+21s22354 0.0 100613
05:00+19s22355 0.0 100711
08:00+26ssw12255 0.0 1009344
11:00+33ssw43185 0.0 10081261
14:00+36ssw531668 0.0 10062273
17:00+37sw761449 0.0 10042920
20:00+29ssw61123100 0.0 1005179
25 may, wed
wed2523:00+25ssw473188 0.0 1007105
02:00+21s22415 0.0 100714
05:00+20s22390 0.0 100711
08:00+27s23250 0.0 1009329
11:00+35s44120 0.0 10091224
14:00+38ssw54100 0.0 10072123
17:00+38ssw6590 0.0 10052406
20:00+30ssw58180 0.0 100684
26 may, thu
thu2623:00+25ssw34291 0.0 100729
02:00+22sse22382 0.0 100711
05:00+20s11400 0.0 100811
08:00+29sse13230 0.0 1010347
11:00+36s66140 0.0 10091451
14:00+39s77100 0.0 10072167
17:00+39ssw7690 0.0 10061869
20:00+30ssw57130 0.0 100779
27 may, fri
fri2723:00+23sw11250 0.0 100811
02:00+22sw11291 0.0 100811
05:00+23sse2230100 0.0 100812
08:00+29s332581 0.0 1010378
11:00+35s33135 0.0 10101341
14:00+39s5497 0.0 10071779
17:00+39ssw55119 0.0 10052176
20:00+30wsw5721100 0.0 100685
28 may, sat
sat2823:00+26wsw461876 0.0 100776
02:00+21wsw11258 0.0 100612
05:00+20s22306 0.0 100711
08:00+27ssw22195 0.0 1008296
11:00+33ssw33162 0.0 10061170
14:00+38ssw55100 0.0 10032029
17:00+38wsw56105 0.0 10012453
20:00+30sw69183 0.0 1002117